This is the latest recevied weather packets stored in our database for station/object KD4MBW. If no packets are shown the sender has not sent any weather packets the latest 10 day(s).
| Time | Temp. | Humidity | Pressure | Rain* | Wind** | Luminosity | Snow |
|---|---|---|---|---|---|---|---|
| 1777902210 | 20.56° C | 56% | 1019.1 hPa | 0 mm | - | 450 W/m² | - |
| 1777901909 | 20.56° C | 55% | 1018.8 hPa | 0 mm | - | 430 W/m² | - |
| 1777901606 | 20° C | 57% | 1019 hPa | 0 mm | - | 367 W/m² | - |
| 1777901303 | 19.44° C | 58% | 1018.9 hPa | 0 mm | - | 392 W/m² | - |
| 1777901001 | 18.33° C | 59% | 1019 hPa | 0 mm | - | 370 W/m² | - |
| 1777900698 | 18.33° C | 63% | 1018.9 hPa | 0 mm | - | 338 W/m² | - |
| 1777900395 | 18.33° C | 62% | 1018.9 hPa | 0 mm | - | 326 W/m² | - |
| 1777900092 | 17.78° C | 63% | 1018.7 hPa | 0 mm | - | 309 W/m² | - |
| 1777899788 | 17.22° C | 63% | 1018.6 hPa | 0 mm | - | 291 W/m² | - |
| 1777899485 | 16.67° C | 64% | 1018.7 hPa | 0 mm | - | 274 W/m² | - |
| 1777899183 | 16.67° C | 67% | 1019 hPa | 0 mm | - | 258 W/m² | - |
| 1777898880 | 16.11° C | 68% | 1018.7 hPa | 0 mm | - | 240 W/m² | - |
| 1777898578 | 15.56° C | 71% | 1018.7 hPa | 0 mm | - | 224 W/m² | - |
| 1777898275 | 15° C | 72% | 1018.4 hPa | 0 mm | - | 206 W/m² | - |
| 1777897972 | 15° C | 72% | 1018.4 hPa | 0 mm | - | 190 W/m² | - |
| 1777897668 | 14.44° C | 74% | 1018.6 hPa | 0 mm | - | 174 W/m² | - |
| 1777897364 | 14.44° C | 76% | 1018.5 hPa | 0 mm | - | 158 W/m² | - |
| 1777897060 | 13.33° C | 78% | 1018.6 hPa | 0 mm | - | 143 W/m² | - |
| 1777896757 | 13.33° C | 79% | 1018.9 hPa | 0 mm | - | 128 W/m² | - |
| 1777896455 | 13.33° C | 79% | 1018.4 hPa | 0 mm | - | 116 W/m² | - |
| 1777896152 | 13.33° C | 78% | 1018.5 hPa | 0 mm | - | 102 W/m² | - |
| 1777895850 | 12.78° C | 78% | 1018.3 hPa | 0 mm | - | 89 W/m² | - |
| 1777895547 | 12.78° C | 79% | 1018.3 hPa | 0 mm | - | 78 W/m² | - |
| 1777895244 | 12.78° C | 78% | 1018.3 hPa | 0 mm | - | 66 W/m² | - |
| 1777894942 | 12.22° C | 79% | 1018.2 hPa | 0 mm | - | 55 W/m² | - |
* Rain latest hour (hover to see other rain measurements)
** Current wind speed in m/s (hover to see current wind gust speed)